Time,TemperatureF,DewpointF,PressureIn,WindDirection,WindDirectionDegrees,WindSpeedMPH,WindSpeedGustMPH,Humidity,HourlyPrecipIn,Conditions,Clouds,dailyrainin,SoftwareType,DateUTC
2013-12-04 00:00:00,36.5,22.7,29.52,NW,315,1.1,-999.0,57,-99.99,,,0.00,Acu-Link.com,2013-12-04 07:00:00,
2013-12-04 00:15:00,37.0,22.4,29.52,NW,315,3.7,-999.0,55,-99.99,,,0.00,Acu-Link.com,2013-12-04 07:15:00,
2013-12-04 00:30:00,37.4,21.9,29.51,South,180,0.0,-999.0,53,-99.99,,,0.00,Acu-Link.com,2013-12-04 07:30:00,
2013-12-04 00:46:00,38.5,21.5,29.51,SW,225,4.2,-999.0,50,-99.99,,,0.00,Acu-Link.com,2013-12-04 07:46:00,
2013-12-04 01:01:00,37.2,21.2,29.51,SW,225,2.2,-999.0,52,-99.99,,,0.00,Acu-Link.com,2013-12-04 08:01:00,
2013-12-04 01:16:00,36.5,21.5,29.50,NNW,337,1.7,-999.0,54,-99.99,,,0.00,Acu-Link.com,2013-12-04 08:16:00,
2013-12-04 01:32:00,35.2,20.7,29.50,NE,45,4.2,-999.0,55,-99.99,,,0.00,Acu-Link.com,2013-12-04 08:32:00,
2013-12-04 01:47:00,34.5,20.0,29.51,NE,45,0.0,-999.0,55,-99.99,,,0.00,Acu-Link.com,2013-12-04 08:47:00,
2013-12-04 02:02:00,33.6,20.8,29.51,SSE,157,1.1,-999.0,59,-99.99,,,0.00,Acu-Link.com,2013-12-04 09:02:00,
2013-12-04 02:17:00,33.4,21.0,29.51,NE,45,3.2,-999.0,60,-99.99,,,0.00,Acu-Link.com,2013-12-04 09:17:00,
2013-12-04 02:32:00,33.8,21.0,29.52,NE,45,0.0,-999.0,59,-99.99,,,0.00,Acu-Link.com,2013-12-04 09:32:00,
2013-12-04 02:48:00,35.2,21.5,29.51,NE,45,2.7,-999.0,57,-99.99,,,0.00,Acu-Link.com,2013-12-04 09:48:00,
2013-12-04 03:03:00,36.3,21.7,29.50,NE,45,3.2,-999.0,55,-99.99,,,0.00,Acu-Link.com,2013-12-04 10:03:00,
2013-12-04 03:18:00,35.8,21.7,29.50,NE,45,2.2,-999.0,56,-99.99,,,0.00,Acu-Link.com,2013-12-04 10:18:00,
2013-12-04 03:33:00,35.8,22.5,29.49,NNW,337,3.7,-999.0,58,-99.99,,,0.00,Acu-Link.com,2013-12-04 10:33:00,
2013-12-04 03:49:00,35.6,22.3,29.49,NNW,337,0.0,-999.0,58,-99.99,,,0.00,Acu-Link.com,2013-12-04 10:49:00,
2013-12-04 04:04:00,35.8,22.1,29.48,ESE,112,3.2,-999.0,57,-99.99,,,0.00,Acu-Link.com,2013-12-04 11:04:00,
2013-12-04 04:19:00,35.6,22.3,29.47,ESE,112,0.0,-999.0,58,-99.99,,,0.00,Acu-Link.com,2013-12-04 11:19:00,
2013-12-04 04:35:00,35.2,22.3,29.47,SW,225,2.2,-999.0,59,-99.99,,,0.00,Acu-Link.com,2013-12-04 11:35:00,
2013-12-04 04:50:00,35.1,22.6,29.47,SW,225,3.7,-999.0,60,-99.99,,,0.00,Acu-Link.com,2013-12-04 11:50:00,
2013-12-04 05:05:00,35.1,22.6,29.47,SW,225,0.0,-999.0,60,-99.99,,,0.00,Acu-Link.com,2013-12-04 12:05:00,
2013-12-04 05:20:00,33.6,22.4,29.47,SW,225,1.7,-999.0,63,-99.99,,,0.00,Acu-Link.com,2013-12-04 12:20:00,
2013-12-04 05:35:00,33.3,22.1,29.48,NNE,22,4.7,-999.0,63,-99.99,,,0.00,Acu-Link.com,2013-12-04 12:35:00,
2013-12-04 05:50:00,36.5,23.6,29.48,SW,225,4.7,-999.0,59,-99.99,,,0.00,Acu-Link.com,2013-12-04 12:50:00,
2013-12-04 06:06:00,39.2,23.5,29.48,SW,225,4.2,-999.0,53,-99.99,,,0.00,Acu-Link.com,2013-12-04 13:06:00,
2013-12-04 06:21:00,39.9,23.7,29.47,SSW,202,3.7,-999.0,52,-99.99,,,0.00,Acu-Link.com,2013-12-04 13:21:00,
2013-12-04 06:36:00,39.9,23.3,29.47,SSW,202,10.4,-999.0,51,-99.99,,,0.00,Acu-Link.com,2013-12-04 13:36:00,
2013-12-04 06:51:00,40.5,23.3,29.47,SSW,202,8.9,-999.0,50,-99.99,,,0.00,Acu-Link.com,2013-12-04 13:51:00,
2013-12-04 07:06:00,41.0,22.8,29.47,SW,225,7.3,-999.0,48,-99.99,,,0.00,Acu-Link.com,2013-12-04 14:06:00,
2013-12-04 07:21:00,41.7,22.5,29.46,SSW,202,18.1,-999.0,46,-99.99,,,0.00,Acu-Link.com,2013-12-04 14:21:00,
2013-12-04 07:36:00,41.9,22.6,29.46,SW,225,15.5,-999.0,46,-99.99,,,0.00,Acu-Link.com,2013-12-04 14:36:00,
2013-12-04 07:51:00,42.6,22.8,29.48,West,270,15.5,-999.0,45,-99.99,,,0.00,Acu-Link.com,2013-12-04 14:51:00,
2013-12-04 08:06:00,43.0,23.1,29.48,SSW,202,6.8,-999.0,45,-99.99,,,0.00,Acu-Link.com,2013-12-04 15:06:00,
2013-12-04 08:21:00,42.8,22.9,29.47,SSW,202,13.5,-999.0,45,-99.99,,,0.00,Acu-Link.com,2013-12-04 15:21:00,
2013-12-04 08:37:00,42.8,23.5,29.48,SSW,202,13.0,-999.0,46,-99.99,,,0.00,Acu-Link.com,2013-12-04 15:37:00,
2013-12-04 08:52:00,43.2,23.3,29.48,SSE,157,14.0,-999.0,45,-99.99,,,0.00,Acu-Link.com,2013-12-04 15:52:00,
2013-12-04 09:07:00,44.2,23.7,29.48,SSW,202,11.4,-999.0,44,-99.99,,,0.00,Acu-Link.com,2013-12-04 16:07:00,
2013-12-04 09:22:00,44.1,23.1,29.49,SSW,202,13.5,-999.0,43,-99.99,,,0.00,Acu-Link.com,2013-12-04 16:22:00,
2013-12-04 09:37:00,44.2,24.2,29.48,WSW,247,12.5,-999.0,45,-99.99,,,0.00,Acu-Link.com,2013-12-04 16:37:00,
2013-12-04 09:52:00,43.3,22.9,29.49,SSW,202,7.3,-999.0,44,-99.99,,,0.00,Acu-Link.com,2013-12-04 16:52:00,
2013-12-04 10:08:00,43.3,22.9,29.48,SE,135,7.8,-999.0,44,-99.99,,,0.00,Acu-Link.com,2013-12-04 17:08:00,
2013-12-04 10:23:00,43.3,23.4,29.49,SSW,202,5.8,-999.0,45,-99.99,,,0.00,Acu-Link.com,2013-12-04 17:23:00,
2013-12-04 10:38:00,43.7,23.8,29.50,WSW,247,11.9,-999.0,45,-99.99,,,0.00,Acu-Link.com,2013-12-04 17:38:00,
2013-12-04 10:54:00,44.2,23.7,29.48,South,180,8.3,-999.0,44,-99.99,,,0.00,Acu-Link.com,2013-12-04 17:54:00,
2013-12-04 11:09:00,44.2,24.2,29.48,SW,225,13.0,-999.0,45,-99.99,,,0.00,Acu-Link.com,2013-12-04 18:09:00,
2013-12-04 11:24:00,43.9,24.5,29.46,SW,225,12.5,-999.0,46,-99.99,,,0.00,Acu-Link.com,2013-12-04 18:24:00,
2013-12-04 11:39:00,43.2,25.3,29.46,SSW,202,12.5,-999.0,49,-99.99,,,0.00,Acu-Link.com,2013-12-04 18:39:00,
2013-12-04 11:54:00,43.7,25.8,29.44,SSE,157,13.0,-999.0,49,-99.99,,,0.00,Acu-Link.com,2013-12-04 18:54:00,
2013-12-04 12:09:00,43.9,26.0,29.44,SW,225,10.4,-999.0,49,-99.99,,,0.00,Acu-Link.com,2013-12-04 19:09:00,
2013-12-04 12:24:00,43.2,25.3,29.43,South,180,7.3,-999.0,49,-99.99,,,0.00,Acu-Link.com,2013-12-04 19:24:00,
2013-12-04 12:40:00,43.2,25.8,29.42,SW,225,8.3,-999.0,50,-99.99,,,0.00,Acu-Link.com,2013-12-04 19:40:00,
2013-12-04 12:55:00,43.7,25.8,29.42,SSW,202,10.9,-999.0,49,-99.99,,,0.00,Acu-Link.com,2013-12-04 19:55:00,
2013-12-04 13:10:00,44.1,26.2,29.42,WSW,247,5.3,-999.0,49,-99.99,,,0.00,Acu-Link.com,2013-12-04 20:10:00,
2013-12-04 13:25:00,43.0,27.1,29.41,SW,225,4.2,-999.0,53,-99.99,,,0.00,Acu-Link.com,2013-12-04 20:25:00,
2013-12-04 13:40:00,43.3,25.9,29.42,WSW,247,4.7,-999.0,50,-99.99,,,0.00,Acu-Link.com,2013-12-04 20:40:00,
2013-12-04 13:56:00,43.0,25.2,29.41,SSW,202,5.8,-999.0,49,-99.99,,,0.00,Acu-Link.com,2013-12-04 20:56:00,
2013-12-04 14:11:00,43.2,25.3,29.44,West,270,8.3,-999.0,49,-99.99,,,0.00,Acu-Link.com,2013-12-04 21:11:00,
2013-12-04 14:26:00,42.6,24.8,29.44,SSW,202,7.8,-999.0,49,-99.99,,,0.00,Acu-Link.com,2013-12-04 21:26:00,
2013-12-04 14:41:00,42.3,25.0,29.44,South,180,6.3,-999.0,50,-99.99,,,0.00,Acu-Link.com,2013-12-04 21:41:00,
2013-12-04 14:56:00,41.2,26.3,29.45,West,270,5.3,-999.0,55,-99.99,,,0.00,Acu-Link.com,2013-12-04 21:56:00,
2013-12-04 15:11:00,40.5,27.3,29.46,West,270,4.7,-999.0,59,-99.99,,,0.00,Acu-Link.com,2013-12-04 22:11:00,
2013-12-04 15:27:00,39.9,27.2,29.47,WSW,247,4.7,-999.0,60,-99.99,,,0.00,Acu-Link.com,2013-12-04 22:27:00,
2013-12-04 15:42:00,39.2,27.3,29.48,SW,225,3.7,-999.0,62,-99.99,,,0.00,Acu-Link.com,2013-12-04 22:42:00,
2013-12-04 15:57:00,38.5,27.4,29.48,WSW,247,3.7,-999.0,64,-99.99,,,0.00,Acu-Link.com,2013-12-04 22:57:00,
2013-12-04 16:12:00,37.9,26.8,29.49,SW,225,8.3,-999.0,64,-99.99,,,0.00,Acu-Link.com,2013-12-04 23:12:00,
2013-12-04 16:27:00,36.5,26.2,29.52,SSW,202,13.0,-999.0,66,-99.99,,,0.00,Acu-Link.com,2013-12-04 23:27:00,
2013-12-04 16:43:00,35.2,26.4,29.53,SSW,202,10.4,-999.0,70,-99.99,,,0.00,Acu-Link.com,2013-12-04 23:43:00,
2013-12-04 16:58:00,34.0,26.3,29.54,NNE,22,5.8,-999.0,73,-99.99,,,0.00,Acu-Link.com,2013-12-04 23:58:00,
2013-12-04 17:13:00,32.9,24.5,29.56,SSW,202,12.5,-999.0,71,-99.99,,,0.00,Acu-Link.com,2013-12-05 00:13:00,
2013-12-04 17:28:00,32.0,24.0,29.56,South,180,10.4,-999.0,72,-99.99,,,0.00,Acu-Link.com,2013-12-05 00:28:00,
2013-12-04 17:43:00,32.0,23.7,29.57,SSW,202,8.3,-999.0,71,-99.99,,,0.00,Acu-Link.com,2013-12-05 00:43:00,
2013-12-04 17:58:00,31.6,22.3,29.58,SSW,202,10.4,-999.0,68,-99.99,,,0.00,Acu-Link.com,2013-12-05 00:58:00,
2013-12-04 18:13:00,31.3,21.3,29.59,SSW,202,11.9,-999.0,66,-99.99,,,0.00,Acu-Link.com,2013-12-05 01:13:00,
2013-12-04 18:29:00,30.9,20.5,29.62,SSW,202,7.8,-999.0,65,-99.99,,,0.00,Acu-Link.com,2013-12-05 01:29:00,
2013-12-04 18:44:00,30.2,20.6,29.62,WSW,247,8.9,-999.0,67,-99.99,,,0.00,Acu-Link.com,2013-12-05 01:44:00,
2013-12-04 18:59:00,29.8,20.9,29.63,WSW,247,4.2,-999.0,69,-99.99,,,0.00,Acu-Link.com,2013-12-05 01:59:00,
2013-12-04 19:14:00,29.7,20.8,29.63,West,270,5.8,-999.0,69,-99.99,,,0.00,Acu-Link.com,2013-12-05 02:14:00,
2013-12-04 19:30:00,29.5,20.6,29.63,West,270,5.8,-999.0,69,-99.99,,,0.00,Acu-Link.com,2013-12-05 02:30:00,
2013-12-04 19:45:00,29.3,20.4,29.66,West,270,3.7,-999.0,69,-99.99,,,0.00,Acu-Link.com,2013-12-05 02:45:00,
2013-12-04 20:00:00,29.1,20.2,29.65,WNW,292,6.8,-999.0,69,-99.99,,,0.00,Acu-Link.com,2013-12-05 03:00:00,
2013-12-04 20:15:00,29.1,20.2,29.66,West,270,3.2,-999.0,69,-99.99,,,0.00,Acu-Link.com,2013-12-05 03:15:00,
2013-12-04 20:30:00,28.9,20.0,29.66,South,180,3.7,-999.0,69,-99.99,,,0.00,Acu-Link.com,2013-12-05 03:30:00,
2013-12-04 20:45:00,28.8,19.9,29.67,WNW,292,3.2,-999.0,69,-99.99,,,0.00,Acu-Link.com,2013-12-05 03:45:00,
2013-12-04 21:01:00,28.6,19.7,29.67,West,270,3.2,-999.0,69,-99.99,,,0.00,Acu-Link.com,2013-12-05 04:01:00,
2013-12-04 21:16:00,28.2,19.4,29.68,West,270,2.2,-999.0,69,-99.99,,,0.00,Acu-Link.com,2013-12-05 04:16:00,
2013-12-04 21:31:00,28.2,19.4,29.68,West,270,3.2,-999.0,69,-99.99,,,0.00,Acu-Link.com,2013-12-05 04:31:00,
2013-12-04 21:46:00,27.9,19.4,29.69,West,270,2.2,-999.0,70,-99.99,,,0.00,Acu-Link.com,2013-12-05 04:46:00,
2013-12-04 22:01:00,27.9,19.4,29.69,West,270,2.7,-999.0,70,-99.99,,,0.00,Acu-Link.com,2013-12-05 05:01:00,
2013-12-04 22:17:00,27.7,18.5,29.70,SW,225,5.3,-999.0,68,-99.99,,,0.00,Acu-Link.com,2013-12-05 05:17:00,
2013-12-04 22:32:00,27.7,18.9,29.70,West,270,3.2,-999.0,69,-99.99,,,0.00,Acu-Link.com,2013-12-05 05:32:00,
2013-12-04 22:47:00,27.7,18.9,29.70,WNW,292,3.2,-999.0,69,-99.99,,,0.00,Acu-Link.com,2013-12-05 05:47:00,
2013-12-04 23:02:00,27.5,18.7,29.70,West,270,0.0,-999.0,69,-99.99,,,0.00,Acu-Link.com,2013-12-05 06:02:00,
2013-12-04 23:18:00,27.5,18.7,29.70,West,270,0.0,-999.0,69,-99.99,,,0.00,Acu-Link.com,2013-12-05 06:18:00,
2013-12-04 23:33:00,27.5,19.0,29.71,West,270,0.0,-999.0,70,-99.99,,,0.00,Acu-Link.com,2013-12-05 06:33:00,
2013-12-04 23:48:00,27.5,19.4,29.71,West,270,0.0,-999.0,71,-99.99,,,0.00,Acu-Link.com,2013-12-05 06:48:00,